Temperature
3 3 2 2 1 1 0 -1 -2 -2 -1 -1 -1 -1 -2 -2 -1 -1 -1 -1 -2 -2 -2 -2 -3 -3 -3 -3 -3 -2 -2 -2 -1 -1 -1 -0 -0 0
3 3 2 1 1 0 -0 -1 -2 -2 -3 -2 -2 -2 -2 -2 -2 -2 -2 -2 -2 -2 -2 -3 -3 -3 -3 -3 -3 -3 -3 -2 -2 -2 -1 -1 -1 -0
2 2 2 1 0 -0 -1 -1 -2 -3 -3 -2 -2 -2 -3 -3 -4 -4 -4 -4 -3 -3 -3 -3 -4 -4 -4 -4 -3 -3 -3 -3 -2 -2 -2 -1 -1 -1
2 1 1 1 0 -1 -1 -2 -2 -3 -3 -3 -3 -3 -4 -4 -5 -5 -5 -5 -5 -4 -4 -4 -4 -4 -4 -4 -4 -3 -3 -3 -3 -3 -2 -2 -2 -2
1 1 1 0 -0 -1 -2 -2 -3 -3 -4 -4 -4 -4 -5 -5 -5 -5 -5 -5 -5 -5 -5 -5 -5 -5 -4 -4 -4 -4 -4 -3 -3 -3 -3 -3 -2 -2
1 1 0 -0 -1 -1 -2 -3 -3 -4 -4 -5 -5 -5 -5 -5 -5 -5 -5 -5 -5 -5 -5 -5 -5 -5 -5 -5 -4 -4 -4 -4 -4 -3 -3 -3 -3 -3
0 0 -0 -1 -1 -2 -3 -3 -4 -4 -5 -5 -5 -5 -5 -5 -5 -5 -5 -5 -5 -5 -5 -5 -5 -5 -5 -5 -5 -5 -4 -4 -4 -4 -4 -3 -3 -3
-0 -1 -1 -1 -2 -2 -3 -4 -4 -5 -5 -5 -5 -5 -5 -5 -5 -5 -6 -6 -6 -5 -6 -5 -5 -6 -5 -5 -5 -5 -5 -5 -4 -4 -4 -4 -3 -3
-1 -2 -2 -2 -3 -3 -4 -4 -5 -5 -5 -5 -5 -6 -6 -6 -6 -6 -6 -6 -6 -6 -6 -6 -6 -6 -6 -5 -5 -5 -5 -5 -5 -4 -4 -4 -4 -3
-2 -2 -3 -3 -4 -4 -5 -5 -5 -5 -5 -6 -6 -6 -6 -6 -6 -6 -6 -6 -6 -6 -6 -6 -6 -6 -6 -5 -5 -5 -5 -5 -5 -5 -4 -4 -4 -4
-3 -3 -3 -4 -4 -5 -5 -5 -6 -6 -6 -6 -6 -6 -6 -6 -6 -6 -6 -7 -7 -6 -6 -6 -6 -6 -6 -6 -5 -5 -5 -5 -5 -5 -5 -5 -4 -4
-3 -4 -4 -4 -5 -5 -6 -6 -6 -6 -6 -6 -6 -6 -6 -7 -7 -7 -7 -7 -7 -7 -7 -7 -7 -7 -6 -6 -6 -6 -6 -6 -6 -5 -5 -5 -5 -5
-4 -4 -5 -5 -5 -6 -6 -6 -6 -6 -6 -6 -7 -7 -7 -7 -7 -7 -8 -8 -8 -8 -8 -8 -7 -7 -7 -7 -6 -6 -6 -6 -6 -6 -6 -5 -5 -5
-5 -5 -5 -6 -6 -6 -6 -6 -6 -7 -7 -7 -7 -7 -8 -8 -8 -8 -8 -8 -8 -8 -8 -8 -8 -8 -8 -7 -7 -7 -6 -6 -6 -6 -6 -6 -6 -5
-5 -6 -6 -6 -6 -7 -7 -7 -7 -7 -7 -8 -8 -8 -8 -8 -8 -8 -8 -8 -8 -8 -8 -8 -8 -8 -8 -8 -7 -7 -7 -7 -7 -7 -6 -6 -6 -6
-6 -6 -6 -7 -7 -7 -7 -7 -8 -8 -8 -8 -8 -9 -9 -9 -9 -9 -9 -9 -8 -8 -8 -8 -8 -8 -8 -8 -8 -7 -7 -7 -7 -7 -7 -7 -7 -6
-7 -7 -7 -7 -7 -8 -8 -8 -8 -9 -9 -9 -9 -9 -9 -9 -9 -9 -9 -9 -9 -9 -8 -8 -8 -8 -8 -8 -8 -7 -7 -7 -7 -7 -7 -7 -7 -7
-7 -7 -7 -8 -8 -8 -9 -9 -9 -9 -9 -10 -10 -10 -10 -9 -9 -9 -9 -9 -9 -9 -9 -8 -8 -8 -8 -8 -7 -7 -7 -7 -7 -7 -7 -7 -7 -7
-8 -8 -8 -9 -9 -9 -9 -10 -10 -10 -10 -10 -10 -10 -10 -10 -10 -10 -9 -9 -9 -9 -9 -9 -9 -9 -8 -8 -8 -7 -8 -8 -8 -8 -8 -7 -7 -7
-9 -9 -9 -9 -10 -10 -10 -10 -10 -11 -11 -11 -11 -10 -10 -10 -10 -10 -10 -10 -9 -9 -9 -9 -9 -9 -9 -9 -8 -8 -8 -8 -8 -8 -8 -8 -8 -7
-9 -10 -10 -10 -10 -10 -11 -11 -11 -11 -11 -11 -11 -11 -11 -10 -10 -10 -10 -10 -10 -10 -9 -9 -9 -9 -9 -9 -9 -8 -8 -8 -8 -8 -8 -8 -8 -8
-10 -10 -10 -11 -11 -11 -11 -11 -11 -11 -11 -11 -11 -11 -11 -11 -10 -10 -10 -10 -10 -10 -10 -9 -9 -9 -9 -9 -9 -9 -8 -8 -8 -8 -8 -8 -8 -8
-11 -11 -11 -11 -11 -11 -11 -12 -12 -12 -12 -12 -12 -11 -11 -11 -11 -11 -10 -10 -10 -10 -10 -10 -10 -9 -9 -9 -9 -9 -9 -9 -8 -8 -8 -8 -8 -8
Wind_Speed
7 8 8 8 8 8 9 9 10 13 15 14 11 11 13 16 19 20 21 23 25 26 27 26 26 26 27 27 27 27 27 27 27 27 28 28 28 28
7 9 9 8 8 8 9 10 11 13 15 13 14 15 15 16 20 21 22 26 26 26 26 26 26 27 27 27 27 27 27 27 27 27 27 27 28 28
9 10 11 11 10 10 10 10 11 12 16 17 15 15 17 17 17 19 20 21 21 25 26 27 28 28 28 27 27 27 27 26 26 26 26 26 26 26
11 11 12 10 13 12 11 12 12 13 15 19 17 15 18 17 17 17 17 18 20 24 27 28 29 28 28 27 27 26 26 25 25 24 24 24 24 24
12 12 13 13 14 13 13 13 13 13 14 16 17 15 15 15 17 17 17 15 18 21 24 25 26 26 27 27 27 26 25 24 23 23 23 22 23 23
12 13 14 14 15 15 14 15 14 14 15 15 16 15 15 16 15 15 15 14 14 16 19 21 23 25 25 25 25 24 23 23 22 22 22 22 22 23
13 14 14 16 18 16 14 14 14 13 13 14 15 15 15 14 14 14 15 15 15 14 15 14 14 14 15 18 20 20 21 21 22 22 22 22 22 22
14 14 15 16 18 20 22 22 20 17 16 15 15 16 18 17 15 14 15 15 15 12 13 14 13 14 14 13 18 21 21 21 21 21 21 21 21 21
15 15 13 13 16 15 17 20 21 23 23 19 18 19 19 18 17 17 16 16 16 14 14 15 14 14 13 14 19 20 20 20 20 20 19 19 18 19
15 16 16 16 14 15 15 16 17 18 19 16 15 17 18 18 16 16 16 15 15 13 12 13 13 13 12 11 15 16 17 16 16 16 16 16 16 16
15 15 15 16 18 20 18 18 19 17 18 21 22 22 25 24 20 14 13 13 14 13 11 10 11 12 12 11 10 13 13 13 13 14 13 13 14 14
13 14 16 18 20 21 17 17 17 17 16 16 17 17 16 17 19 13 11 12 13 11 9 8 10 9 8 7 7 7 8 10 11 11 11 11 12 9
12 12 12 18 20 22 21 17 19 19 16 14 12 12 12 10 10 9 8 9 11 11 9 8 9 9 8 8 9 8 7 7 7 7 8 9 9 9
14 13 13 20 22 24 20 20 23 20 12 11 11 11 11 10 9 9 8 9 10 12 12 11 8 9 10 10 9 7 7 7 6 6 6 6 7 8
14 19 22 24 23 19 19 21 18 12 10 10 11 11 10 10 9 9 9 8 10 10 11 10 10 9 9 9 9 8 7 6 5 5 5 5 5 4
14 17 21 21 18 17 16 13 10 10 10 10 10 10 10 9 9 8 8 8 8 8 7 8 8 9 8 9 9 9 7 5 4 4 5 5 4 4
15 13 12 11 10 10 10 10 9 8 9 9 9 9 9 9 9 8 7 8 8 8 7 5 5 7 8 8 8 7 6 5 5 4 4 5 4 4
18 13 12 11 11 11 11 10 9 9 9 9 9 9 9 9 9 8 7 8 8 8 7 6 5 5 5 6 7 7 6 5 4 4 4 4 4 3
14 12 11 11 11 11 10 10 10 9 9 9 9 9 9 9 9 8 8 7 7 7 6 5 5 5 6 6 2 4 4 4 4 3 3 4 4 4
11 11 11 11 11 10 10 10 10 9 9 9 9 9 9 9 9 8 8 8 8 7 7 5 4 5 5 6 4 3 4 5 4 4 3 3 3 4
11 11 11 11 10 10 10 10 10 10 10 9 9 10 9 9 9 8 8 10 9 7 7 6 4 5 5 4 5 4 2 3 4 3 3 3 3 3
11 11 11 11 10 10 9 10 10 10 10 9 9 9 8 8 9 9 8 8 7 7 7 6 4 4 4 5 6 4 3 2 2 4 5 4 3 2
11 11 11 10 10 9 9 10 11 10 10 9 9 9 8 8 8 8 8 8 7 7 7 6 5 4 5 5 5 4 4 3 2 2 2 3 5 4
Wind_Direction
268 269 268 270 269 269 270 271 279 292 295 298 297 293 291 289 293 295 295 295 296 296 295 294 294 292 290 289 288 287 285 284 283 282 280 278 277 276
266 269 271 272 272 269 267 268 267 274 284 289 293 293 294 290 291 292 293 295 294 293 294 294 293 292 291 289 288 286 285 284 283 281 280 279 278 277
269 269 272 274 275 273 271 269 269 271 279 287 290 294 295 293 293 291 291 292 292 292 293 294 294 293 291 290 289 287 286 285 284 283 282 281 280 279
273 274 274 276 273 274 273 272 274 274 279 288 292 295 294 294 291 290 290 289 289 291 292 293 293 292 291 290 289 288 287 286 285 284 284 283 282 281
274 274 275 276 277 277 277 277 278 279 278 283 289 293 292 291 292 289 288 288 288 289 291 291 291 291 291 290 289 289 288 288 286 285 283 282 282 282
271 271 272 272 274 278 280 280 280 280 280 280 284 288 289 290 289 290 291 290 290 292 291 290 290 290 289 288 288 288 289 288 285 284 282 280 280 280
272 270 270 269 271 273 275 277 279 278 280 281 283 287 288 291 291 292 292 293 291 291 291 289 291 290 291 289 286 285 285 285 283 282 281 279 278 277
275 275 275 272 272 273 274 277 279 280 282 282 284 284 287 290 292 291 291 292 292 293 292 291 291 288 287 285 284 286 286 284 283 282 281 281 280 279
278 279 279 277 278 278 281 282 280 278 276 278 280 282 287 290 292 291 288 287 287 291 293 289 288 286 286 283 283 285 285 286 287 286 284 284 284 283
278 279 281 282 282 283 283 281 279 277 276 276 276 278 281 285 284 285 287 287 285 283 281 284 289 289 290 287 287 286 288 291 292 292 290 289 289 288
280 279 279 281 283 286 286 285 285 283 281 278 279 281 284 288 289 292 291 291 292 294 292 285 291 296 295 291 286 287 291 294 296 297 297 297 297 294
283 280 277 278 284 288 288 288 287 289 290 290 287 285 286 287 288 283 284 286 289 292 294 292 294 302 297 291 295 298 295 292 291 291 295 299 301 296
286 285 283 285 287 290 291 288 287 292 293 292 290 288 287 283 279 276 269 272 281 282 291 297 292 293 286 291 296 295 295 298 299 296 291 293 297 297
286 287 287 289 291 293 293 291 293 296 293 291 288 288 289 289 289 286 275 270 269 274 282 285 281 285 287 290 293 296 295 293 293 296 298 298 289 286
284 286 289 291 294 293 291 292 294 291 287 284 284 286 289 290 289 286 279 267 265 266 268 268 269 276 276 279 286 292 296 293 288 290 298 301 303 302
286 287 289 289 288 286 289 291 286 282 281 281 283 288 290 288 284 284 285 288 286 284 268 264 267 270 273 277 279 284 287 288 294 295 294 296 295 297
295 291 287 286 286 286 287 288 286 284 283 281 283 286 288 287 286 285 283 286 285 290 293 287 274 266 265 274 278 277 281 284 286 294 297 294 294 294
296 290 288 289 289 291 292 292 289 285 284 284 283 284 286 287 288 286 281 280 283 287 290 294 295 290 270 246 239 269 278 282 287 286 284 289 294 303
290 286 287 288 289 289 288 288 287 286 286 284 282 281 283 283 282 283 282 280 280 283 287 289 286 286 292 295 235 227 277 294 289 280 278 285 298 317
282 282 284 286 286 284 285 286 287 286 284 282 281 280 280 280 279 279 280 281 282 284 284 280 276 279 285 299 306 292 267 282 286 283 288 295 298 299
283 283 284 284 282 281 282 284 284 284 284 283 281 280 278 277 276 276 279 279 277 276 278 281 285 290 282 273 268 264 269 263 282 291 293 287 292 298
283 284 284 281 280 279 281 283 283 281 281 278 278 278 276 274 273 274 275 276 274 273 277 280 278 270 255 256 266 276 279 282 261 262 268 279 294 312
284 284 282 281 279 278 279 280 279 278 277 277 277 277 275 275 274 273 272 270 269 269 271 274 271 260 256 260 266 268 267 269 266 254 252 253 261 270
Height
1515 1512 1510 1507 1504 1501 1498 1495 1491 1483 1477 1476 1473 1469 1464 1460 1456 1451 1447 1443 1439 1435 1431 1428 1425 1422 1420 1418 1416 1414 1413 1411 1410 1409 1408 1408 1408 1408
1510 1507 1505 1502 1499 1495 1492 1489 1485 1480 1472 1468 1466 1463 1459 1454 1449 1445 1440 1435 1431 1427 1424 1420 1417 1414 1412 1410 1408 1406 1404 1403 1402 1401 1400 1400 1399 1399
1504 1502 1499 1496 1492 1489 1486 1482 1479 1474 1467 1460 1459 1455 1451 1447 1442 1437 1433 1429 1424 1420 1417 1413 1410 1407 1404 1401 1399 1398 1396 1395 1393 1392 1391 1391 1390 1390
1498 1495 1492 1489 1486 1483 1479 1475 1472 1468 1462 1454 1450 1447 1444 1439 1434 1430 1426 1422 1417 1413 1409 1405 1402 1398 1396 1393 1391 1389 1388 1386 1385 1384 1383 1382 1382 1382
1492 1489 1486 1482 1479 1476 1472 1468 1464 1460 1456 1449 1443 1440 1436 1432 1428 1423 1419 1415 1411 1407 1402 1398 1394 1391 1388 1385 1383 1381 1379 1378 1377 1376 1375 1374 1374 1373
1485 1482 1478 1475 1471 1468 1464 1460 1457 1453 1448 1443 1437 1433 1429 1425 1422 1416 1411 1408 1404 1400 1396 1392 1388 1384 1381 1378 1375 1373 1371 1370 1368 1367 1367 1366 1366 1366
1477 1474 1470 1467 1463 1460 1456 1452 1449 1445 1441 1436 1431 1426 1422 1419 1415 1410 1405 1401 1397 1394 1389 1385 1382 1378 1374 1371 1368 1366 1364 1362 1361 1360 1359 1359 1358 1358
1468 1465 1461 1458 1454 1451 1447 1444 1441 1437 1433 1429 1424 1420 1415 1413 1408 1404 1400 1394 1389 1388 1384 1378 1376 1371 1368 1364 1362 1359 1357 1355 1354 1353 1352 1352 1351 1351
1460 1456 1453 1449 1446 1442 1438 1434 1431 1428 1426 1423 1417 1413 1409 1406 1402 1397 1393 1388 1383 1380 1377 1371 1368 1364 1361 1358 1355 1353 1351 1349 1348 1346 1346 1345 1344 1344
1452 1449 1445 1441 1437 1434 1429 1425 1422 1419 1417 1413 1409 1405 1402 1398 1395 1391 1386 1381 1376 1374 1371 1365 1362 1359 1355 1352 1350 1347 1345 1343 1342 1341 1340 1339 1338 1338
1443 1440 1436 1433 1429 1426 1422 1417 1413 1410 1408 1405 1401 1397 1394 1391 1388 1384 1379 1375 1369 1367 1365 1361 1357 1354 1350 1348 1345 1343 1341 1339 1337 1336 1334 1334 1333 1332
1434 1431 1428 1424 1421 1418 1415 1410 1406 1402 1399 1395 1392 1389 1385 1382 1379 1377 1373 1369 1364 1361 1359 1357 1353 1350 1346 1344 1342 1340 1337 1335 1333 1331 1330 1329 1328 1328
1426 1422 1419 1416 1413 1410 1407 1403 1399 1395 1391 1387 1384 1380 1377 1374 1371 1369 1366 1363 1359 1356 1354 1352 1349 1347 1344 1340 1338 1336 1334 1332 1330 1328 1326 1325 1324 1324
1418 1414 1411 1408 1405 1402 1398 1395 1391 1388 1383 1380 1376 1373 1370 1367 1364 1362 1359 1356 1353 1350 1348 1347 1344 1342 1340 1337 1335 1333 1331 1329 1327 1325 1324 1322 1321 1320
1410 1406 1403 1399 1396 1392 1389 1386 1383 1379 1376 1372 1369 1367 1364 1361 1358 1355 1352 1350 1347 1345 1342 1341 1339 1337 1336 1334 1331 1329 1328 1326 1324 1323 1321 1320 1319 1318
1402 1397 1394 1391 1387 1384 1381 1378 1375 1372 1369 1366 1363 1360 1358 1355 1352 1350 1347 1345 1342 1340 1338 1336 1334 1333 1331 1329 1328 1326 1325 1323 1322 1321 1319 1318 1317 1316
1394 1390 1386 1382 1379 1376 1373 1371 1368 1365 1362 1360 1357 1354 1352 1350 1347 1345 1343 1341 1339 1336 1334 1332 1331 1329 1327 1326 1324 1323 1322 1321 1320 1319 1317 1317 1316 1315
1387 1381 1378 1375 1372 1369 1367 1364 1361 1359 1356 1354 1351 1349 1347 1345 1342 1340 1339 1337 1335 1333 1331 1329 1327 1326 1324 1322 1321 1320 1319 1319 1318 1317 1316 1315 1315 1314
1378 1374 1371 1368 1365 1362 1360 1357 1355 1352 1350 1348 1345 1343 1341 1339 1338 1336 1334 1333 1331 1329 1327 1326 1325 1323 1322 1321 1319 1318 1317 1316 1316 1315 1315 1314 1314 1313
1370 1367 1364 1361 1358 1356 1353 1351 1348 1346 1344 1342 1340 1338 1336 1334 1333 1331 1330 1329 1327 1325 1324 1323 1322 1321 1320 1319 1318 1316 1315 1315 1314 1314 1313 1313 1312 1311
1362 1359 1356 1354 1351 1349 1346 1344 1342 1340 1338 1336 1334 1332 1331 1329 1328 1327 1325 1324 1323 1322 1321 1320 1319 1318 1317 1316 1315 1314 1314 1313 1312 1312 1312 1312 1311 1311
1354 1352 1349 1346 1344 1342 1340 1337 1335 1333 1331 1330 1328 1327 1326 1324 1323 1322 1321 1320 1319 1318 1317 1316 1315 1314 1314 1313 1313 1312 1312 1311 1311 1310 1310 1311 1311 1311
1347 1344 1341 1339 1337 1335 1333 1331 1329 1327 1325 1324 1322 1321 1320 1319 1318 1317 1316 1315 1314 1314 1313 1312 1311 1311 1310 1310 1310 1309 1309 1309 1309 1309 1309 1309 1309 1309